DEABC EDLP-EDLP

Flight info

Callsign DEABC
Flight time 0h 4m
Altitude
Route
Aircraft C172

Departure

Time 2026-05-05 18:13
Airport Paderborn Lippstadt Airport (EDLP)

Arrival

Time 2026-05-05 18:18
Airport Paderborn Lippstadt Airport (EDLP)
Time Latitude Longitude Altitude Speed Heading
2026-05-05 18:07 51.60996 8.61562 693 ft 0 kts 312°
2026-05-05 18:09 51.60997 8.61555 693 ft 0 kts 273°
2026-05-05 18:10 51.60989 8.61529 692 ft 6 kts 255°
2026-05-05 18:10 51.60980 8.61430 693 ft 11 kts 242°
2026-05-05 18:10 51.60961 8.61316 695 ft 13 kts 283°
2026-05-05 18:10 51.60977 8.61180 696 ft 12 kts 282°
2026-05-05 18:11 51.60996 8.61071 696 ft 8 kts 297°
2026-05-05 18:11 51.61032 8.61017 697 ft 6 kts 343°
2026-05-05 18:11 51.61083 8.61035 694 ft 10 kts 21°
2026-05-05 18:11 51.61152 8.61046 695 ft 10 kts 354°
2026-05-05 18:12 51.61219 8.61164 694 ft 31 kts 57°
2026-05-05 18:12 51.61404 8.61617 689 ft 65 kts 57°
2026-05-05 18:12 51.61672 8.62248 801 ft 70 kts 49°
2026-05-05 18:12 51.61970 8.62913 938 ft 73 kts 45°
2026-05-05 18:13 51.62404 8.62963 1070 ft 72 kts 338°
2026-05-05 18:13 51.62778 8.62391 1195 ft 81 kts 297°
2026-05-05 18:13 51.62681 8.61470 1313 ft 93 kts 250°
2026-05-05 18:13 51.62321 8.60502 1375 ft 103 kts 241°
2026-05-05 18:14 51.61893 8.59538 1395 ft 109 kts 240°
2026-05-05 18:14 51.61392 8.58691 1356 ft 101 kts 197°
2026-05-05 18:14 51.60735 8.58843 1207 ft 90 kts 151°
2026-05-05 18:14 51.60598 8.59595 1008 ft 73 kts 64°
2026-05-05 18:15 51.60858 8.60279 773 ft 71 kts 50°
2026-05-05 18:15 51.61104 8.60881 697 ft 53 kts 57°
2026-05-05 18:15 51.61316 8.61411 695 ft 68 kts 53°
2026-05-05 18:15 51.61599 8.62049 830 ft 70 kts 46°
2026-05-05 18:16 51.61887 8.62697 989 ft 69 kts 40°
2026-05-05 18:16 51.62343 8.62805 1107 ft 73 kts 341°
2026-05-05 18:16 51.62728 8.62258 1254 ft 81 kts 294°
2026-05-05 18:16 51.62569 8.61318 1346 ft 95 kts 242°
2026-05-05 18:17 51.62293 8.60691 1330 ft 106 kts 238°
2026-05-05 18:17 51.61841 8.59782 1360 ft 106 kts 235°
2026-05-05 18:17 51.61206 8.59601 1158 ft 94 kts 175°
2026-05-05 18:17 51.60898 8.60318 774 ft 75 kts 64°
2026-05-05 18:18 51.61123 8.60935 696 ft 52 kts 53°
2026-05-05 18:18 51.61282 8.61319 695 ft 34 kts 57°
2026-05-05 18:18 51.61402 8.61615 692 ft 28 kts 55°
2026-05-05 18:18 51.61437 8.61868 689 ft 17 kts 89°
2026-05-05 18:19 51.61409 8.62010 685 ft 13 kts 150°
2026-05-05 18:19 51.61327 8.62007 688 ft 12 kts 191°
2026-05-05 18:19 51.61242 8.61979 689 ft 14 kts 193°
2026-05-05 18:19 51.61174 8.61899 688 ft 11 kts 237°
2026-05-05 18:20 51.61137 8.61810 691 ft 9 kts 236°
2026-05-05 18:20 51.61108 8.61743 691 ft 6 kts 236°
2026-05-05 18:20 51.61079 8.61663 692 ft 10 kts 239°
2026-05-05 18:20 51.61031 8.61612 693 ft 8 kts 142°
2026-05-05 18:21 51.60996 8.61597 693 ft 5 kts 226°
2026-05-05 18:21 51.60995 8.61563 693 ft 0 kts 321°